Weather History for KHAI - December, 2011

Change the Weather History Date:

Wednesday, December 14, 2011

  Actual Average Record
Temperature  
Mean Temperature 43 °F -  
Max Temperature 51 °F 36 °F 66 °F (1975)
Min Temperature 35 °F 22 °F -3 °F (1958)
Degree Days  
Heating Degree Days 22    
Moisture  
Dew Point 43 °F    
Average Humidity 99    
Maximum Humidity 100    
Minimum Humidity 93    
Precipitation  
Precipitation 0.00 in - - ()
Sea Level Pressure  
Sea Level Pressure 30.07 in    
Wind  
Wind Speed 7 mph (South)    
Max Wind Speed 22 mph    
Max Gust Speed 29 mph    
Visibility 3 miles    
Events Rain    
Averages and records for this station are not official NWS values.
T = Trace of Precipitation, MM = Missing Value Source: NWS Daily Summary

Daily Weather History Graph

Daily Weather History Graph

Search for Another Location

Airport or City:

Trip Planner

Search our weather history database for the weather conditions in past years. The results will help you decide how hot, cold, wet, or windy it might be!

Date:

Astronomy

Dec. 14, 2011 Rise Set
Actual Time 8:02 AM EST 5:11 PM EST
Civil Twilight 7:30 AM EST 5:43 PM EST
Nautical Twilight 6:55 AM EST 6:18 PM EST
Astronomical Twilight 6:21 AM EST 6:52 PM EST
Moon 9:34 PM EST (12/14) 10:44 AM EST (12/14)
Length of Visible Light 10h 12m
Length of Day
9h 09m
Waning Gibbous, 83% of the Moon is Illuminated
Dec 14
Waning Gibbous
Dec 17
Last Quarter
Dec 24
New
Jan 1
First Quarter
Jan 9
Full

Hourly Weather History & Observations

Time (EST) Temp. Windchill Dew Point Humidity Pressure Visibility Wind Dir Wind Speed Gust Speed Precip Events Conditions
12:05 AM 35.6 °F - 35.6 °F 100% 30.30 in 2.0 mi Calm Calm - N/A   Overcast
12:25 AM 35.6 °F - 35.6 °F 100% 30.30 in 1.2 mi Calm Calm - N/A   Overcast
12:45 AM 35.6 °F - 35.6 °F 100% 30.30 in 1.2 mi Calm Calm - N/A   Overcast
1:05 AM 35.6 °F 32.8 °F 35.6 °F 100% 30.29 in 1.0 mi SSE 3.5 mph - N/A   Overcast
1:25 AM 35.6 °F 31.7 °F 35.6 °F 100% 30.27 in 1.0 mi SSE 4.6 mph - N/A   Overcast
1:45 AM 35.6 °F 32.8 °F 35.6 °F 100% 30.26 in 1.0 mi SE 3.5 mph - N/A   Overcast
2:05 AM 35.6 °F 32.8 °F 35.6 °F 100% 30.25 in 1.2 mi SE 3.5 mph - N/A   Overcast
2:25 AM 37.4 °F 33.8 °F 37.4 °F 100% 30.26 in 1.2 mi South 4.6 mph - N/A   Overcast
2:45 AM 37.4 °F 33.8 °F 37.4 °F 100% 30.26 in 1.2 mi SSE 4.6 mph - N/A   Overcast
3:05 AM 37.4 °F 33.8 °F 37.4 °F 100% 30.25 in 1.5 mi SSE 4.6 mph - N/A   Overcast
3:25 AM 37.4 °F 32.8 °F 37.4 °F 100% 30.25 in 1.5 mi South 5.8 mph - N/A   Overcast
4:05 AM 37.4 °F 32.8 °F 37.4 °F 100% 30.22 in 1.8 mi SSE 5.8 mph - N/A   Overcast
4:25 AM 37.4 °F 32.1 °F 37.4 °F 100% 30.22 in 2.0 mi SSE 6.9 mph - N/A   Overcast
4:45 AM 37.4 °F 33.8 °F 37.4 °F 100% 30.22 in 2.0 mi South 4.6 mph - N/A   Overcast
5:05 AM 37.4 °F 32.8 °F 37.4 °F 100% 30.22 in 2.0 mi South 5.8 mph - N/A   Overcast
5:25 AM 37.4 °F 32.8 °F 37.4 °F 100% 30.19 in 2.5 mi SSE 5.8 mph - N/A   Overcast
5:45 AM 39.2 °F 35.9 °F 39.2 °F 100% 30.18 in 2.5 mi SSE 4.6 mph - N/A   Overcast
6:05 AM 39.2 °F 35.9 °F 39.2 °F 100% 30.19 in 3.0 mi South 4.6 mph - N/A   Overcast
6:25 AM 39.2 °F 35.9 °F 39.2 °F 100% 30.20 in 3.0 mi South 4.6 mph - N/A   Overcast
6:45 AM 39.2 °F 34.2 °F 39.2 °F 100% 30.19 in 3.0 mi South 6.9 mph - N/A   Overcast
7:05 AM 39.2 °F 33.6 °F 39.2 °F 100% 30.18 in 3.0 mi SSE 8.1 mph - N/A   Overcast
7:25 AM 39.2 °F 33.0 °F 39.2 °F 100% 30.15 in 4.0 mi SSE 9.2 mph - N/A   Overcast
7:45 AM 39.2 °F 33.6 °F 39.2 °F 100% 30.15 in 4.0 mi SSE 8.1 mph - N/A   Overcast
8:05 AM 39.2 °F 35.0 °F 39.2 °F 100% 30.15 in 4.0 mi SSE 5.8 mph - N/A   Overcast
8:25 AM 41.0 °F 38.0 °F 41.0 °F 100% 30.15 in 4.0 mi SSE 4.6 mph - N/A   Overcast
8:45 AM 41.0 °F - 41.0 °F 100% 30.16 in 3.0 mi Calm Calm - N/A   Overcast
9:05 AM 39.2 °F - 39.2 °F 100% 30.17 in 2.5 mi Calm Calm - N/A   Overcast
9:25 AM 39.2 °F 35.9 °F 39.2 °F 100% 30.14 in 1.2 mi SE 4.6 mph - N/A   Overcast
9:45 AM 41.0 °F 35.8 °F 41.0 °F 100% 30.12 in 2.0 mi SE 8.1 mph - N/A   Overcast
10:05 AM 41.0 °F 35.2 °F 41.0 °F 100% 30.10 in 3.0 mi SE 9.2 mph - N/A   Overcast
10:25 AM 42.8 °F 36.2 °F 42.8 °F 100% 30.09 in 4.0 mi SSE 12.7 mph 17.3 mph N/A   Overcast
10:45 AM 42.8 °F 36.6 °F 42.8 °F 100% 30.09 in 4.0 mi SSE 11.5 mph 16.1 mph N/A   Overcast
11:05 AM 42.8 °F 36.6 °F 42.8 °F 100% 30.10 in 2.0 mi SSE 11.5 mph - N/A   Overcast
11:25 AM 42.8 °F 35.8 °F 42.8 °F 100% 30.08 in 1.8 mi SSE 13.8 mph 18.4 mph N/A   Overcast
11:45 AM 42.8 °F 35.1 °F 42.8 °F 100% 30.08 in 1.5 mi SSE 16.1 mph - N/A   Overcast
12:05 PM 42.8 °F 36.2 °F 42.8 °F 100% 30.07 in 1.8 mi South 12.7 mph 17.3 mph N/A   Overcast
12:26 PM 42.8 °F 35.4 °F 42.8 °F 100% 30.03 in 1.2 mi South 15.0 mph 21.9 mph N/A   Overcast
12:54 PM 44.6 °F 38.8 °F 44.6 °F 100% 29.99 in 2.5 mi South 11.5 mph 19.6 mph N/A Rain Light Rain
1:14 PM 44.6 °F 36.9 °F 44.6 °F 100% 29.96 in 2.0 mi SSE 18.4 mph 23.0 mph N/A Rain Light Rain
1:35 PM 46.4 °F 39.2 °F 46.4 °F 100% 29.97 in 2.0 mi South 18.4 mph 25.3 mph N/A Rain Light Rain
1:55 PM 46.4 °F 40.4 °F 46.4 °F 100% 29.95 in 2.5 mi South 13.8 mph - N/A   Overcast
2:14 PM 46.4 °F 40.4 °F 46.4 °F 100% 29.94 in 3.0 mi South 13.8 mph - N/A   Overcast
2:35 PM 46.4 °F 40.1 °F 46.4 °F 100% 29.92 in 4.0 mi South 15.0 mph - N/A   Overcast
2:54 PM 46.4 °F 39.5 °F 46.4 °F 100% 29.93 in 4.0 mi SSW 17.3 mph - N/A Rain Light Rain
3:15 PM 48.2 °F - 46.4 °F 93% 29.94 in 3.0 mi SSW 16.1 mph - N/A   Drizzle
3:34 PM 48.2 °F - 48.2 °F 100% 29.93 in 3.0 mi SSW 15.0 mph - N/A Rain Rain
3:55 PM 48.2 °F - 48.2 °F 100% 29.92 in 4.0 mi South 15.0 mph 19.6 mph N/A Rain Light Rain
4:15 PM 48.2 °F - 48.2 °F 100% 29.92 in 5.0 mi SSW 10.4 mph - N/A Rain Rain
4:35 PM 48.2 °F - 48.2 °F 100% 29.94 in 5.0 mi SSW 15.0 mph - N/A Rain Light Rain
4:55 PM 50.0 °F - 48.2 °F 94% 29.90 in 2.5 mi South 12.7 mph - N/A Rain Rain
5:15 PM 50.0 °F - 48.2 °F 94% 29.90 in 7.0 mi South 12.7 mph - N/A   Overcast
5:34 PM 50.0 °F - 50.0 °F 100% 29.91 in 10.0 mi SSW 12.7 mph 17.3 mph N/A   Overcast
5:55 PM 50.0 °F - 50.0 °F 100% 29.90 in 7.0 mi South 11.5 mph - N/A Rain Rain
6:15 PM 50.0 °F - 50.0 °F 100% 29.89 in 7.0 mi South 13.8 mph 18.4 mph N/A Rain Rain
6:34 PM 50.0 °F - 50.0 °F 100% 29.90 in 4.0 mi South 13.8 mph 20.7 mph N/A Rain Heavy Rain
6:55 PM 50.0 °F - 50.0 °F 100% 29.87 in 4.0 mi South 17.3 mph 21.9 mph N/A Rain Rain
7:15 PM 50.0 °F - 50.0 °F 100% 29.87 in 5.0 mi South 18.4 mph 24.2 mph N/A Rain Light Rain
7:34 PM 51.8 °F - 50.0 °F 94% 29.88 in 5.0 mi SSW 16.1 mph 25.3 mph N/A Rain Light Rain
7:55 PM 51.8 °F - 50.0 °F 94% 29.87 in 7.0 mi SSW 18.4 mph 28.8 mph N/A Rain Light Rain
8:15 PM 51.8 °F - 50.0 °F 94% 29.85 in 7.0 mi South 21.9 mph 27.6 mph N/A Rain Rain
8:35 PM 51.8 °F - 50.0 °F 94% 29.85 in 7.0 mi SSW 16.1 mph 25.3 mph N/A Rain Light Rain
8:55 PM 51.8 °F - 50.0 °F 94% 29.84 in 7.0 mi SSW 16.1 mph 23.0 mph N/A Rain Light Rain
9:35 PM 51.8 °F - 51.8 °F 100% 29.81 in 7.0 mi South 16.1 mph 21.9 mph N/A Rain Light Rain
9:55 PM 51.8 °F - 51.8 °F 100% 29.80 in 7.0 mi SSW 17.3 mph 23.0 mph N/A   Light Drizzle
10:14 PM 51.8 °F - 51.8 °F 100% 29.79 in 4.0 mi South 19.6 mph 25.3 mph N/A   Overcast
10:35 PM 51.8 °F - 51.8 °F 100% 29.80 in 3.0 mi SSW 16.1 mph 21.9 mph N/A Rain Heavy Rain
10:55 PM 51.8 °F - 51.8 °F 100% 29.77 in 7.0 mi South 16.1 mph 20.7 mph N/A Rain Light Rain
11:14 PM 51.8 °F - 51.8 °F 100% 29.77 in 4.0 mi SSW 16.1 mph 24.2 mph N/A Rain Rain
11:35 PM 51.8 °F - 51.8 °F 100% 29.76 in 3.0 mi SSW 16.1 mph 21.9 mph N/A Rain Rain
11:55 PM 51.8 °F - 51.8 °F 100% 29.76 in 2.5 mi SSW 12.7 mph 21.9 mph N/A   Drizzle